FENGYUN 1C DEB, 35173

Orbit data source: Space-Track

FENGYUN 1C DEB, 35173 is space debris in SSO originally from a launch on Mon, 10 May 1999 UTC launched from the Taiyaun Space Center, China (TSC). Fengyun 1C debris stems from the Chinese weather satellite Fengyun-1C, which was intentionally destroyed by a Chinese anti-satellite missile in 2007. This event dramatically increased the amount of space debris, with thousands of trackable fragments posing hazards to satellites and human spaceflight. The Fengyun 1C debris cloud has become a focal point in discussions about space sustainability and the need for international regulations to prevent the creation of new debris.

Loading next visibility...
Identifier
35173, 1999-025DND
Orbit
SSO
Country
Flag of CNCN / PRC
Related business
Manufacturer
Unknown
Mission
Spacecraft
Bus & Motor
Unknown
Mass
Unknown
Launch date (UTC)
1999-05-10 (27 years ago)
Launch vehicle
Unknown
Launch site
Taiyaun Space Center, China (TSC)
Object type
Payload
Rocket body
Debris
Shape & HBR
Unknown shape, 0.1 m
Radar Cross Section
Small (<0.1 m²)

Expand to show TLE details & history
Last TLE update: 3 days ago

TLE from 3 days ago
0 FENGYUN 1C DEB
1 35173U 99025DND 26166.92702157  .00001785  00000-0  17194-2 0  9993
2 35173  99.7750 237.0328 0489497 122.6071 242.3289 13.38131223683052
Epoch: 2026-06-15T22:14Z
TLE epoch observation values (Epoch: 2026-06-15T22:14:54.663Z)
Latitude
-0.00005°
Longitude
-0.90135°
Altitude
1,303.029 km
Speed
7.116 km/s
True Right ascension
15h 48m 07s
True Declination
0° 00' 00"
Sunlit
Object was in full shadow at epoch
Visualization orbit readout
Latitude
Unknown
Longitude
Unknown
Altitude
Unknown
Speed
Unknown
Apparent Right ascension
Unknown
Apparent Declination
Unknown
Sunlit
N/A
Visualization observer readout
Local Sidereal Time
21:05:03
Azimuth
Unknown
Elevation
Unknown
Doppler factor
Unknown
Orbital elements
Apogee altitude
1,480.276 km
Perigee altitude
746.844 km
Semi-major axis
7,491.697 km
Eccentricity
0.04895
Inclination
99.775°
RAAN
237.0328°
Arg. of periapsis
122.6071°
True anomaly
237.5043°
Mean anomaly
242.3289°
Eccentric anomaly
239.90243°
Mean motion
3.34713 °/min
Orbital period
107.55 mins
BSTAR
0.0017194
Loading maneuver chart data...
Computing Atmospheric mass density...

Documentation

Showing up to 5 results
|